Météo par heure à Allendorf

Ce jour, 15 Mai, Samedi

Heure Température Précipitation Vent Pression Humidité
00:00 +7°C° 0 mm 1 m/s 722 mmHg 95%
01:00 +6°C° 0 mm 1 m/s 722 mmHg 96%
02:00 +6°C° 0 mm 1 m/s 721 mmHg 97%
03:00 +4°C° 0 mm 2 m/s 721 mmHg 97%
04:00 +4°C° 0 mm 2 m/s 721 mmHg 98%
05:00 +5°C° 0 mm 2 m/s 721 mmHg 97%
06:00 +6°C° 0 mm 2 m/s 721 mmHg 97%
07:00 +7°C° 0 mm 2 m/s 721 mmHg 96%
08:00 +7°C° 0.1 mm 2 m/s 721 mmHg 96%
09:00 +7°C° 0.1 mm 3 m/s 721 mmHg 95%
10:00 +8°C° 0.1 mm 3 m/s 721 mmHg 94%
11:00 +8°C° 0.3 mm 3 m/s 720 mmHg 91%
12:00 +8°C° 0.3 mm 4 m/s 720 mmHg 89%
13:00 +10°C° 0.3 mm 4 m/s 720 mmHg 86%
14:00 +10°C° 0.2 mm 4 m/s 720 mmHg 81%
15:00 +10°C° 0.2 mm 4 m/s 720 mmHg 77%
16:00 +11°C° 0.2 mm 4 m/s 719 mmHg 72%
17:00 +10°C° 0.2 mm 4 m/s 719 mmHg 79%
18:00 +8°C° 0.2 mm 3 m/s 719 mmHg 87%
19:00 +7°C° 0.2 mm 3 m/s 719 mmHg 94%
20:00 +7°C° 0.1 mm 2 m/s 719 mmHg 95%
21:00 +6°C° 0.1 mm 2 m/s 719 mmHg 96%
22:00 +6°C° 0.1 mm 2 m/s 719 mmHg 97%
23:00 +6°C° 0 mm 2 m/s 719 mmHg 98%

Demain, 16 Mai, Dimanche

Heure Température Précipitation Vent Pression Humidité
00:00 +6°C° 0 mm 2 m/s 719 mmHg 98%
01:00 +5°C° 0 mm 2 m/s 719 mmHg 98%
02:00 +5°C° 0 mm 2 m/s 719 mmHg 98%
03:00 +5°C° 0 mm 2 m/s 719 mmHg 98%
04:00 +4°C° 0 mm 2 m/s 719 mmHg 98%
05:00 +5°C° 0 mm 2 m/s 719 mmHg 96%
06:00 +6°C° 0 mm 2 m/s 719 mmHg 95%
07:00 +7°C° 0 mm 2 m/s 719 mmHg 93%
08:00 +8°C° 0.3 mm 3 m/s 719 mmHg 90%
09:00 +8°C° 0.3 mm 4 m/s 719 mmHg 86%
10:00 +10°C° 0.3 mm 4 m/s 719 mmHg 83%
11:00 +10°C° 0.6 mm 4 m/s 718 mmHg 81%
12:00 +11°C° 0.6 mm 4 m/s 718 mmHg 79%
13:00 +11°C° 0.6 mm 4 m/s 718 mmHg 77%
14:00 +11°C° 0.3 mm 3 m/s 718 mmHg 78%
15:00 +11°C° 0.3 mm 3 m/s 718 mmHg 80%
16:00 +11°C° 0.3 mm 3 m/s 717 mmHg 81%
17:00 +10°C° 0.7 mm 3 m/s 717 mmHg 85%
18:00 +9°C° 0.7 mm 2 m/s 718 mmHg 89%
19:00 +9°C° 0.7 mm 2 m/s 718 mmHg 94%
20:00 +8°C° 0 mm 2 m/s 718 mmHg 95%
21:00 +6°C° 0 mm 2 m/s 718 mmHg 96%
22:00 +6°C° 0 mm 1 m/s 718 mmHg 97%
23:00 +6°C° 0 mm 1 m/s 718 mmHg 97%

Après-demain, 17 Mai, Lundi

Heure Température Précipitation Vent Pression Humidité
00:00 +6°C° 0 mm 1 m/s 718 mmHg 97%
01:00 +5°C° 0 mm 2 m/s 718 mmHg 97%
02:00 +5°C° 0.7 mm 2 m/s 718 mmHg 97%
03:00 +6°C° 0.7 mm 2 m/s 718 mmHg 98%
04:00 +6°C° 0.7 mm 2 m/s 718 mmHg 98%
05:00 +7°C° 0.7 mm 2 m/s 718 mmHg 98%
06:00 +7°C° 0.7 mm 3 m/s 718 mmHg 97%
07:00 +7°C° 0.7 mm 3 m/s 718 mmHg 97%
08:00 +7°C° 0.8 mm 3 m/s 718 mmHg 97%
09:00 +6°C° 0.8 mm 4 m/s 719 mmHg 96%
10:00 +7°C° 0.8 mm 4 m/s 719 mmHg 96%
11:00 +7°C° 0.3 mm 5 m/s 719 mmHg 93%
12:00 +8°C° 0.3 mm 5 m/s 719 mmHg 90%
13:00 +9°C° 0.3 mm 6 m/s 719 mmHg 88%
14:00 +8°C° 0.6 mm 6 m/s 719 mmHg 90%
15:00 +8°C° 0.6 mm 5 m/s 720 mmHg 92%
16:00 +8°C° 0.6 mm 5 m/s 720 mmHg 94%
17:00 +8°C° 0.2 mm 5 m/s 720 mmHg 93%
18:00 +8°C° 0.2 mm 4 m/s 720 mmHg 93%
19:00 +8°C° 0.2 mm 4 m/s 720 mmHg 93%
20:00 +8°C° 0.1 mm 4 m/s 720 mmHg 93%
21:00 +8°C° 0.1 mm 3 m/s 720 mmHg 94%
22:00 +8°C° 0.1 mm 3 m/s 720 mmHg 95%
23:00 +8°C° 0 mm 3 m/s 721 mmHg 95%

18 Mai, Mardi

Heure Température Précipitation Vent Pression Humidité
00:00 +8°C° 0 mm 3 m/s 721 mmHg 95%
01:00 +7°C° 0 mm 4 m/s 721 mmHg 94%
02:00 +6°C° 0 mm 4 m/s 721 mmHg 95%
03:00 +7°C° 0 mm 3 m/s 721 mmHg 95%
04:00 +7°C° 0 mm 3 m/s 721 mmHg 95%
05:00 +7°C° 0.1 mm 3 m/s 721 mmHg 95%
06:00 +7°C° 0.1 mm 3 m/s 722 mmHg 94%
07:00 +6°C° 0.1 mm 4 m/s 722 mmHg 94%
08:00 +6°C° 0.8 mm 4 m/s 722 mmHg 94%
09:00 +6°C° 0.8 mm 5 m/s 722 mmHg 95%
10:00 +6°C° 0.8 mm 5 m/s 723 mmHg 95%
11:00 +6°C° 0.7 mm 5 m/s 723 mmHg 94%
12:00 +7°C° 0.7 mm 4 m/s 723 mmHg 93%
13:00 +8°C° 0.7 mm 4 m/s 724 mmHg 91%
14:00 +8°C° 0.4 mm 4 m/s 724 mmHg 88%
15:00 +9°C° 0.4 mm 5 m/s 724 mmHg 85%
16:00 +10°C° 0.4 mm 5 m/s 725 mmHg 82%
17:00 +10°C° 0.3 mm 4 m/s 725 mmHg 84%
18:00 +8°C° 0.3 mm 4 m/s 725 mmHg 87%
19:00 +8°C° 0.3 mm 3 m/s 725 mmHg 90%
20:00 +7°C° 0 mm 3 m/s 726 mmHg 92%
21:00 +6°C° 0 mm 2 m/s 726 mmHg 94%
22:00 +5°C° 0 mm 2 m/s 726 mmHg 96%
23:00 +5°C° 0 mm 2 m/s 726 mmHg 96%

19 Mai, Mercredi

Heure Température Précipitation Vent Pression Humidité
00:00 +5°C° 0 mm 2 m/s 726 mmHg 96%
01:00 +4°C° 0 mm 2 m/s 726 mmHg 96%
02:00 +4°C° 0 mm 2 m/s 726 mmHg 97%
03:00 +4°C° 0 mm 2 m/s 727 mmHg 97%
04:00 +4°C° 0 mm 2 m/s 727 mmHg 97%
05:00 +5°C° 0 mm 2 m/s 727 mmHg 95%
06:00 +4°C° 0 mm 3 m/s 727 mmHg 94%
07:00 +5°C° 0 mm 3 m/s 728 mmHg 92%
08:00 +6°C° 0.1 mm 4 m/s 728 mmHg 88%
09:00 +7°C° 0.1 mm 4 m/s 728 mmHg 83%
10:00 +8°C° 0.1 mm 5 m/s 728 mmHg 78%
11:00 +9°C° 0.2 mm 5 m/s 728 mmHg 75%
12:00 +9°C° 0.2 mm 5 m/s 728 mmHg 72%
13:00 +10°C° 0.2 mm 5 m/s 728 mmHg 69%
14:00 +9°C° 0.4 mm 5 m/s 728 mmHg 74%
15:00 +9°C° 0.4 mm 5 m/s 728 mmHg 80%
16:00 +8°C° 0.4 mm 5 m/s 729 mmHg 85%
17:00 +8°C° 0.2 mm 4 m/s 729 mmHg 88%
18:00 +7°C° 0.2 mm 4 m/s 729 mmHg 90%
19:00 +6°C° 0.2 mm 4 m/s 729 mmHg 93%
20:00 +6°C° 0.1 mm 4 m/s 729 mmHg 94%
21:00 +7°C° 0.1 mm 3 m/s 730 mmHg 95%
22:00 +7°C° 0.1 mm 3 m/s 730 mmHg 96%
23:00 +7°C° 0.1 mm 3 m/s 730 mmHg 96%

20 Mai, Jeudi

Heure Température Précipitation Vent Pression Humidité
00:00 +7°C° 0.1 mm 3 m/s 730 mmHg 96%
01:00 +7°C° 0.1 mm 3 m/s 730 mmHg 96%
02:00 +7°C° 0 mm 3 m/s 731 mmHg 96%
03:00 +7°C° 0 mm 3 m/s 731 mmHg 95%
04:00 +5°C° 0 mm 3 m/s 731 mmHg 95%
05:00 +7°C° 0 mm 3 m/s 731 mmHg 94%
06:00 +7°C° 0 mm 3 m/s 731 mmHg 94%
07:00 +7°C° 0 mm 3 m/s 731 mmHg 94%
08:00 +6°C° 0 mm 4 m/s 732 mmHg 90%
09:00 +7°C° 0 mm 4 m/s 732 mmHg 86%
10:00 +8°C° 0 mm 4 m/s 732 mmHg 82%
11:00 +8°C° 0.1 mm 4 m/s 732 mmHg 80%
12:00 +10°C° 0.1 mm 4 m/s 731 mmHg 79%
13:00 +11°C° 0.1 mm 4 m/s 731 mmHg 78%
14:00 +11°C° 0.2 mm 4 m/s 731 mmHg 78%
15:00 +12°C° 0.2 mm 4 m/s 731 mmHg 79%
16:00 +12°C° 0.2 mm 4 m/s 730 mmHg 79%
17:00 +12°C° 0 mm 4 m/s 730 mmHg 74%
18:00 +11°C° 0 mm 4 m/s 730 mmHg 70%
19:00 +11°C° 0 mm 4 m/s 729 mmHg 65%
20:00 +11°C° 0.1 mm 4 m/s 729 mmHg 71%
21:00 +10°C° 0.1 mm 4 m/s 728 mmHg 77%
22:00 +9°C° 0.1 mm 5 m/s 728 mmHg 83%
23:00 +9°C° 0.4 mm 5 m/s 728 mmHg 87%
Voir plus

Nous avons besoin de votre consentement

Meteoprog et ses fournisseurs de services peuvent stocker et accéder à des données personnelles telles que des cookies, des identifiants d'appareils ou d'autres technologies similaires sur votre appareil et traiter ces données pour personnaliser le contenu et les publicités, ainsi que pour fournir des fonctionnalités de médias sociaux et analyser le trafic.

  • Stocker et/ou accéder à des informations sur votre appareil

    Des cookies, des identifiants d'appareils ou d'autres informations peuvent être stockés ou accessibles sur votre appareil aux fins indiquées ci-dessus.

  • Annonces et contenus personnalisés, mesure des annonces et des contenus, connaissance de l'audience et développement de produits

    Les annonces et le contenu peuvent être personnalisés en fonction d'un profil. D'autres données peuvent être ajoutées pour mieux personnaliser les annonces et le contenu. Les performances des publicités et du contenu peuvent être mesurées. Il est possible d'obtenir des informations sur le public qui a vu les publicités et le contenu. Ces données peuvent être utilisées pour développer ou améliorer l'expérience de l'utilisateur, les systèmes et les logiciels.

En cliquant sur "J'accepte", vous autorisez l'utilisation de cookies, des identifiants d'appareils, des balises web ou d'autres technologies similaires. Vos paramètres peuvent être modifiés dans le navigateur de votre appareil.

Dans certains cas, des intérêts légitimes peuvent être invoqués plutôt qu'un consentement. Vous pouvez en savoir plus à ce sujet dans notre Politique de confidentialité et de cookies.